Dean Park Real Estate, NSW, 2761 Blacktown

Thinking about buying in Dean Park? Now could not be a better time, with a whopping 1146 properties either residential or commercial there's certainly plenty to choose from.

The average property price for this area is $662,000 with prices in this suburb ranging from $432,000 to $810,000.

Distance to the coast is 34 Km.

Dean Park Real Estate Market Outlook

Prices are above market average and increase steadily under persistent demand. A more sustainable rate of price growth is anticipated in the short to medium term. In this area of average incomes, there is a mix of housing size and quality. While this may present buying opportunities, growth may be constrained. As buyers begin to examine Dean Park due to other areas being out of the price range and the trend to working from home, "gentrification" may incease price growth. The slightly lower than average earnings from occupations in Dean Park changes the housing and lifestyle preference. It is more a matter of what can be afforded rather than what would we prefer, leading to slower price increases over time. Lower than average population density constrains growth in Dean Park to an extent. However, where buyers are willing to compromise on housing and lifestyle choice, there are affordable options. Lower than average industry presence in Dean Park we believe will be less of a negative impact than it has in the past. Post-COVID and the growth in working from home has lessened the demand for local employment options. This may make Dean Park a better buying opportunity than it may have been in the past.

About

Properties For Sale

Century21 41A SYMONDS RD, DEAN PARK, NSW, 2761 4 2 3 Call Agent

Local Schools


William Dean Public School

(While the above schools are located with the suburb of Dean Park there may also be nearby schools whose catchments cover this suburb)

Local Crime Rates


Average Local Climate by month


(mm)
RAIN
Min (°C)
TEMP
Max (°C)
TEMP
Min (%)
HUMIDITY
Max (%)
HUMIDITY
(m/sec)
WIND
(MJ/sq m)
SOLAR
Jan2.518.631.642.294.32.922.2
Feb3.518.029.746.295.12.718.8
Mar4.615.92749.996.02.415.5
Apr2.212.224.647.496.72.014.0
May1.17.221.146.996.71.711.4
Jun2.35.818.054.2971.99.2
Jul0.63.718.643.994.72.210.7
Aug1.14.320.037.892.82.613.2
Sept1.17.623.234.593.22.917.3
Oct1.511.625.338.794.12.819.7
Nov2.314.828.239.994.12.922.6
Dec2.616.629.839.994.3323.7

source: Australian Government Bureau of Meteorology

Recently Sold Properties / House Prices

15-07-2022 $780,000 6 CHRIS PL DEAN PARK 2761
24-06-2022 $915,000 5 KYLEANNE PL DEAN PARK 2761
24-06-2022 $915,000 5 KYLEANNE PL DEAN PARK 2761
25-05-2022 $750,000 15 ARMSTRONG PL DEAN PARK 2761
25-05-2022 $860,000 1 DENBERN ST DEAN PARK 2761
24-05-2022 $780,000 18 WAYNE ST DEAN PARK 2761
24-05-2022 $820,000 11 / 12 BURROWES GR DEAN PARK 2761
16-05-2022 $1,100,000 46 GLENN ST DEAN PARK 2761
07-04-2022 $875,000 66 NATHAN CRES DEAN PARK 2761
21-03-2022 $1,010,000 20 KENNETH CRES DEAN PARK 2761
21-02-2022 $835,000 6 BENJI PL DEAN PARK 2761
14-02-2022 $800,000 10 / 12 BURROWES GR DEAN PARK 2761
14-02-2022 $880,000 7 / 12 BURROWES GR DEAN PARK 2761
10-02-2022 $848,000 55 GLENN ST DEAN PARK 2761
02-02-2022 $827,500 5 MERTON ST DEAN PARK 2761
01-02-2022 $923,000 49 SYMONDS RD DEAN PARK 2761
25-01-2022 $350,000 43 WAYNE ST DEAN PARK 2761
25-01-2022 $700,000 8 DOOLAN ST DEAN PARK 2761
24-01-2022 $790,550 99 YARRAMUNDI DR DEAN PARK 2761
13-01-2022 $765,000 4 CEDARWOOD GR DEAN PARK 2761
12-01-2022 $760,000 7 MINTOFF PL DEAN PARK 2761
16-12-2021 $110,000 57 YARRAMUNDI DR DEAN PARK 2761
23-11-2021 $785,000 84 NATHAN CRES DEAN PARK 2761
23-11-2021 $747,000 45 HOYLE DR DEAN PARK 2761
02-11-2021 $740,000 7 MEDEA PL DEAN PARK 2761
01-11-2021 $800,000 4 / 12 BURROWES GR DEAN PARK 2761
29-10-2021 $735,000 14 KUALA CL DEAN PARK 2761
29-10-2021 $700,000 101 HOYLE DR DEAN PARK 2761
29-10-2021 $735,000 14 KUALA CL DEAN PARK 2761
29-10-2021 $700,000 101 HOYLE DR DEAN PARK 2761
21-10-2021 $760,000 3 KUALA CL DEAN PARK 2761
19-10-2021 $750,100 16 GLENN ST DEAN PARK 2761
12-10-2021 $750,000 97 YARRAMUNDI DR DEAN PARK 2761
05-10-2021 $755,000 17 DOOLAN ST DEAN PARK 2761
05-10-2021 $775,000 15 MALONE CRES DEAN PARK 2761
05-10-2021 $755,000 17 DOOLAN ST DEAN PARK 2761
05-10-2021 $775,000 15 MALONE CRES DEAN PARK 2761
28-09-2021 $767,000 12 HOYLE DR DEAN PARK 2761
06-09-2021 $825,000 133 HOYLE DR DEAN PARK 2761
02-09-2021 $720,000 16 KATHY WAY DEAN PARK 2761
25-08-2021 $905,000 5 NATHAN CRES DEAN PARK 2761
25-08-2021 $905,000 5 NATHAN CRES DEAN PARK 2761
25-08-2021 $905,000 5 NATHAN CRES DEAN PARK 2761
25-08-2021 $905,000 5 NATHAN CRES DEAN PARK 2761
23-08-2021 $775,000 54 WAYNE ST DEAN PARK 2761
20-08-2021 $745,000 68 HOYLE DR DEAN PARK 2761
20-08-2021 $726,000 27 KENNETH CRES DEAN PARK 2761
20-08-2021 $745,000 68 HOYLE DR DEAN PARK 2761
20-08-2021 $726,000 27 KENNETH CRES DEAN PARK 2761
18-08-2021 $735,000 3 LOUISE ST DEAN PARK 2761

Internet Speed

  • Fibre to the Curb
  • Fibre to the Premises
  • Hybrid Fibre Coaxial (HFC)
  • Satellite

Residz covers 12m+ Australian properties and brings together a wealth of data to give you a better understanding of an area. From crime and schools to bush fire, flood risk and more. Begin your search for properties for sale or learn more about where you currently reside. Residz is an exciting next-generation Real Estate platform getting better by the day!